Overview Statistics Trail Chart Weather Telemetry Raw packets
 

This is the latest recevied weather packets stored in our database for station/object KD7AWQ. If no packets are shown the sender has not sent any weather packets the latest 10 day(s).

<< 20 21 22 23 24 25 26 >>
Time Temp. Humidity Pressure Rain* Wind** Luminosity Snow
1788304829 23.89° C 50% 1187.3 hPa 6.1 mm - 551 W/m² -
1788304525 24.44° C 56% 1186.9 hPa 6.1 mm - 151 W/m² -
1788304222 23.89° C 51% 1187.3 hPa 4.83 mm - 160 W/m² -
1788303922 24.44° C 53% 1187.3 hPa 3.05 mm - 150 W/m² -
1788303617 25° C 54% 1187.3 hPa 0 mm - 86 W/m² -
1788303312 25.56° C 48% 1187.2 hPa 0 mm - 78 W/m² -
1788303006 27.78° C 38% 1187 hPa 0 mm - 75 W/m² -
1788302702 29.44° C 33% 1187.2 hPa 0 mm - 76 W/m² -
1788302398 29.44° C 32% 1187 hPa 0 mm - 70 W/m² -
1788302094 29.44° C 32% 1187.1 hPa 0 mm - 75 W/m² -
1788301789 29.44° C 32% 1187 hPa 0 mm - 82 W/m² -
1788301506 29.44° C 32% 1187.2 hPa 0 mm - 85 W/m² -
1788301181 29.44° C 32% 1187.1 hPa 0 mm - 89 W/m² -
1788300877 29.44° C 32% 1187.3 hPa 0 mm - 106 W/m² -
1788300576 30° C 31% 1187.4 hPa 0 mm - 120 W/m² -
1788300276 30° C 32% 1187.5 hPa 0 mm - 257 W/m² -
1788299974 30° C 31% 1187.4 hPa 0 mm - 146 W/m² -
1788299673 30° C 30% 1187.4 hPa 0 mm - 146 W/m² -
1788299367 29.44° C 31% 1187.4 hPa 0 mm - 159 W/m² -
1788299065 30° C 30% 1187.2 hPa 0 mm - 167 W/m² -
1788298760 30° C 31% 1187.2 hPa 0 mm - 200 W/m² -
1788298455 29.44° C 30% 1187.8 hPa 0 mm - 224 W/m² -
1788298154 30° C 31% 1187.7 hPa 0 mm - 215 W/m² -
1788297850 29.44° C 31% 1187.4 hPa 0 mm - 239 W/m² -
1788297546 30° C 31% 1188.1 hPa 0 mm - 201 W/m² -

* Rain latest hour (hover to see other rain measurements)
** Current wind speed in m/s (hover to see current wind gust speed)